Theta_e
319 317 321 327 327 329 327 323 324 330 333 333 332 338 339 338 336 338 331 331 329 331 328 320 315 312 311 312 313 313 312 311 311 311 311 311 311 311 311 310 310 313 317 319 318 317 318 318 317
320 319 327 330 324 322 321 324 325 328 327 329 331 330 334 339 334 334 333 332 328 331 325 321 316 312 311 312 313 313 312 312 312 312 312 312 312 312 313 313 314 322 326 325 326 326 322 321 321
317 321 329 330 325 320 320 322 323 323 329 330 334 330 333 335 336 335 331 330 327 331 324 320 317 313 311 312 314 313 312 312 313 313 313 313 314 314 315 316 317 323 328 330 329 328 328 329 330
321 324 326 329 326 323 321 327 329 329 328 330 333 334 331 334 336 335 329 330 330 330 325 320 318 314 312 312 314 314 313 313 313 313 314 314 315 315 316 318 319 324 331 333 333 331 331 334 335
322 325 321 326 324 326 328 324 325 325 327 329 330 335 333 333 334 331 328 331 332 328 326 321 319 316 313 312 314 314 314 313 314 314 315 316 316 316 317 319 320 322 328 332 333 334 334 335 337
323 325 325 319 321 323 324 326 326 326 328 329 333 334 334 332 337 335 332 331 333 328 327 323 319 316 313 312 313 315 314 314 314 315 315 316 317 317 318 319 321 322 325 330 334 337 337 337 335
320 326 320 323 323 321 320 322 323 324 325 330 329 335 333 332 338 334 334 332 333 331 329 327 322 317 314 312 313 314 315 314 315 315 316 317 318 319 319 320 321 324 326 329 331 335 336 335 333
322 326 320 321 319 321 324 326 325 327 329 328 329 333 333 332 338 337 337 336 335 335 333 328 323 324 320 331 315 314 314 315 315 316 317 318 319 320 320 321 323 325 333 333 331 332 334 330 329
323 324 322 321 322 321 325 326 327 326 326 326 328 329 327 331 340 340 339 338 337 334 334 331 323 323 326 334 336 324 317 316 316 318 317 322 333 334 333 331 325 323 324 332 335 334 331 330 329
327 327 324 321 321 322 323 327 327 327 327 327 328 329 327 329 334 340 339 339 339 339 335 332 326 323 324 331 332 339 340 338 336 335 336 336 336 336 334 333 321 322 322 325 333 336 333 332 335
327 328 325 323 322 322 323 323 325 325 326 326 327 328 328 328 328 331 335 337 338 338 339 335 333 327 325 331 335 337 339 339 338 337 338 338 337 336 334 332 323 327 330 333 336 338 338 337 336
325 327 326 325 324 325 325 325 327 327 326 325 327 328 328 328 329 330 330 331 335 335 334 335 335 335 332 328 333 334 335 338 337 338 340 337 337 336 334 330 334 336 335 335 338 338 339 339 337
324 324 326 327 326 326 327 328 329 330 329 329 330 330 329 329 329 329 329 329 331 331 332 332 331 333 334 335 332 333 333 335 337 337 339 337 335 335 333 329 332 333 334 334 337 338 339 339 338
321 322 323 324 329 329 330 330 330 330 330 329 328 328 328 327 328 328 329 328 329 327 328 327 326 326 326 328 332 334 334 335 337 337 338 339 336 335 333 331 331 332 332 332 332 337 336 335 336
316 320 320 322 325 326 327 327 328 328 327 327 328 327 327 327 326 328 327 328 326 326 325 325 324 324 324 325 328 333 336 336 338 338 339 339 338 337 333 332 332 331 326 327 331 338 338 337 335
315 316 319 320 318 319 322 327 327 326 326 327 327 327 326 326 327 326 326 326 324 324 324 323 323 323 323 324 327 334 337 337 338 338 339 339 338 337 336 333 332 331 327 330 334 337 336 336 334
315 318 319 320 320 320 320 324 325 324 325 326 327 327 326 326 326 326 325 325 323 323 323 323 322 322 322 323 332 338 338 338 339 339 339 338 339 338 337 335 332 326 330 331 337 335 334 336 335
316 316 318 320 320 319 321 323 323 323 323 325 325 325 325 326 326 325 324 323 322 322 322 322 321 322 322 329 336 339 339 339 340 339 339 339 338 338 337 336 333 327 331 335 337 334 335 334 335
315 316 317 318 319 320 321 323 323 323 322 323 324 325 326 325 325 323 323 321 322 322 322 322 321 324 323 336 338 339 340 339 339 339 340 339 337 338 337 336 333 333 334 338 336 334 333 333 331
314 315 315 316 316 318 320 322 322 321 321 322 323 324 324 324 324 325 324 324 324 323 321 321 321 325 325 336 339 339 339 338 339 340 340 339 338 338 338 336 335 335 337 337 335 333 332 333 330
312 314 315 316 316 316 317 319 320 319 319 319 319 320 320 322 322 325 325 324 324 324 320 322 322 327 327 335 337 337 338 338 339 340 340 340 339 338 338 336 335 337 337 336 333 334 333 332 330
313 312 313 314 315 318 316 320 320 320 320 319 319 319 320 319 320 322 324 325 324 323 323 321 325 331 333 335 337 339 340 341 341 340 340 340 339 339 338 337 336 337 337 334 334 333 333 332 330
310 310 312 313 315 316 316 317 318 318 318 318 319 319 318 319 321 320 320 322 320 321 322 326 335 339 338 338 339 340 341 339 340 340 341 341 339 339 337 337 337 334 333 333 333 332 332 331 331
309 310 311 311 313 316 315 316 317 317 318 317 317 317 318 318 318 318 318 318 319 320 329 337 340 341 339 339 339 340 340 338 339 338 338 337 336 336 335 335 333 333 334 333 333 332 332 331 330
307 310 312 313 313 314 313 315 316 318 317 316 316 317 318 319 319 319 320 321 321 329 336 340 341 341 339 339 338 339 338 337 338 337 336 336 336 336 336 335 335 335 332 332 332 331 331 330 330
307 309 310 311 312 312 312 314 315 316 316 316 316 317 318 319 321 322 322 320 323 330 337 340 342 341 339 338 338 338 336 337 337 337 336 336 336 337 335 335 333 333 332 332 331 331 331 330 330
308 307 309 309 311 312 312 313 313 314 316 316 316 317 318 321 325 329 330 323 328 336 340 342 342 341 340 338 338 337 337 336 336 335 336 336 335 335 334 334 334 333 332 332 331 330 330 330 330
309 309 308 308 310 310 312 313 314 316 314 316 316 317 319 325 331 334 332 327 334 338 341 341 341 340 338 337 336 335 336 336 335 335 334 334 334 333 333 333 333 333 332 332 331 330 331 330 328
310 310 310 309 310 311 311 313 316 315 316 316 316 316 317 322 332 336 335 335 337 339 341 341 339 337 336 336 335 335 335 335 335 335 335 335 334 334 333 333 333 333 332 330 330 331 330 330 330
309 310 309 312 311 310 311 312 314 315 314 316 316 316 317 320 329 336 334 333 338 340 341 340 338 337 336 335 335 335 334 334 334 334 334 334 335 334 332 331 332 332 330 330 331 330 330 330 330
Wind_Speed
8 5 5 2 3 1 4 7 8 7 3 4 4 5 15 4 11 3 3 19 16 29 29 33 31 31 31 30 27 25 22 22 21 19 18 17 16 14 13 13 11 10 9 8 7 7 6 4 4
9 8 2 1 4 6 6 7 13 8 9 11 7 7 6 10 5 2 5 22 16 27 29 33 33 32 32 30 28 27 26 24 22 20 19 19 17 16 14 12 11 11 10 8 7 6 5 5 3
10 2 3 3 4 11 5 9 12 9 11 12 4 5 4 3 3 3 7 26 20 29 29 33 33 33 32 31 29 28 27 27 25 23 21 20 19 18 16 15 13 12 11 10 8 6 5 4 3
4 3 2 5 13 11 11 2 4 5 7 4 7 4 2 3 3 6 15 27 21 29 30 32 32 33 33 32 31 30 29 29 27 25 24 22 20 18 17 16 14 13 12 11 9 7 6 5 4
1 1 5 6 15 8 10 15 12 17 10 6 8 5 3 2 5 15 21 28 24 28 28 32 31 33 34 33 33 31 31 30 29 27 26 23 21 19 17 16 14 13 13 11 9 8 7 6 6
3 1 4 15 15 12 12 12 13 12 12 10 5 6 3 1 6 12 18 27 23 27 30 32 33 34 35 35 34 32 32 31 30 28 26 25 22 21 18 16 13 12 11 10 9 8 8 8 8
4 4 12 9 8 13 18 11 14 13 13 6 4 3 1 5 10 13 16 24 23 24 27 30 30 35 34 34 33 32 31 31 30 30 28 27 24 21 18 16 13 11 10 10 9 9 9 9 9
4 3 11 9 12 16 6 2 3 3 6 10 2 2 4 2 8 10 12 14 16 19 22 26 29 28 30 29 35 33 33 32 32 31 28 27 24 20 16 13 11 8 7 8 8 9 10 9 9
4 8 13 17 13 11 2 5 1 4 6 6 5 3 7 1 8 9 9 11 11 15 21 26 30 30 30 28 27 35 35 34 33 32 31 28 19 18 16 15 14 11 9 10 10 9 9 9 9
10 11 20 8 15 10 12 5 7 6 10 8 11 5 17 4 4 6 11 16 17 19 23 26 30 34 32 28 28 27 25 26 27 27 25 24 21 19 19 19 18 19 16 10 13 12 11 10 9
10 20 21 15 15 14 17 18 9 12 19 15 9 8 13 13 15 9 11 14 18 18 17 27 30 32 33 29 26 25 25 26 28 30 27 26 22 21 21 19 22 19 17 12 13 13 13 13 10
14 20 22 14 14 9 16 15 13 14 25 13 12 14 13 14 11 13 14 15 20 16 23 22 26 30 33 32 29 30 30 29 30 28 27 27 24 23 24 22 18 17 15 13 14 13 15 15 13
24 21 14 18 18 13 12 18 15 18 23 16 18 20 18 12 11 14 18 17 15 18 26 24 26 31 33 36 38 34 35 31 28 25 25 28 26 27 26 25 19 17 17 14 12 13 15 15 15
13 20 25 18 12 9 16 24 15 15 20 14 14 19 21 16 15 16 15 18 17 21 21 21 24 26 28 34 38 39 35 31 27 25 25 28 28 27 28 27 22 16 17 14 12 15 17 17 15
21 18 9 14 22 19 14 30 30 25 23 23 20 20 19 16 16 16 17 14 16 17 20 24 25 25 25 32 35 33 30 28 25 23 23 25 27 26 29 25 23 19 20 17 14 14 13 15 15
11 17 22 25 13 7 13 30 29 14 19 21 21 18 13 13 13 15 14 14 19 21 23 26 27 25 24 28 31 27 23 22 21 20 19 22 24 25 25 24 22 19 20 15 14 14 14 14 14
14 21 25 26 22 14 16 31 24 16 18 18 17 16 14 14 14 16 11 16 19 23 31 29 26 25 23 23 21 18 19 18 17 17 17 19 20 22 22 21 21 22 17 15 14 14 15 12 13
22 27 25 24 10 22 19 34 21 17 14 18 17 17 16 17 19 18 16 18 24 30 31 29 23 24 20 16 14 14 15 15 15 15 15 16 17 18 19 18 18 21 16 14 13 15 10 8 8
12 16 23 18 13 14 23 30 26 22 22 24 24 22 19 19 17 18 17 23 21 29 31 24 21 20 12 10 13 13 14 14 14 14 15 15 16 16 18 16 18 19 17 16 13 10 9 7 11
24 21 11 10 5 9 19 26 19 13 18 19 21 21 21 20 17 15 20 20 23 25 30 27 19 17 13 14 12 7 12 11 12 13 13 14 15 16 17 18 17 18 16 13 12 11 6 6 8
20 25 20 9 4 10 11 20 21 17 19 20 20 20 19 19 18 16 17 22 24 21 29 23 18 15 14 16 14 11 10 9 11 12 12 14 16 17 18 20 16 17 16 15 12 10 10 7 5
21 14 19 18 11 13 4 13 17 17 19 18 17 18 18 17 18 20 19 19 23 26 23 18 14 11 14 19 16 17 13 13 11 14 13 14 15 15 17 18 18 17 14 13 10 11 11 9 8
17 7 11 11 16 15 20 11 22 17 21 23 20 18 18 22 22 22 22 22 27 23 19 15 9 8 12 16 16 17 12 9 13 13 16 14 14 14 15 15 16 17 16 12 11 11 12 11 9
10 18 18 10 10 14 18 13 21 18 21 20 15 15 16 16 17 19 21 22 22 16 11 8 9 11 14 15 15 16 18 17 18 16 16 14 13 12 14 13 13 15 13 11 11 10 9 10 11
10 12 9 11 11 17 11 12 21 11 11 7 5 9 13 13 13 13 14 13 15 11 8 9 12 14 15 16 16 17 20 21 20 19 17 15 13 11 13 14 13 12 12 11 9 10 10 11 11
14 14 10 17 13 14 13 13 9 17 18 17 13 7 10 11 11 12 13 11 9 10 10 12 16 17 18 17 17 17 19 17 16 15 15 13 12 11 13 12 12 11 11 10 11 10 10 9 9
10 11 14 4 1 8 11 22 18 14 11 8 5 7 15 17 16 17 16 10 6 10 14 16 19 19 19 19 17 16 16 16 15 15 13 12 12 11 11 11 11 12 11 12 11 8 8 8 7
6 7 10 6 7 9 8 17 9 3 13 2 8 12 16 18 17 16 11 4 7 12 15 18 21 22 21 20 18 17 16 15 15 14 13 12 11 10 10 10 12 12 12 11 9 8 7 5 5
3 6 4 6 10 7 6 4 6 18 6 7 8 12 18 17 17 14 9 2 6 13 18 20 20 22 21 20 19 18 16 14 13 12 11 10 9 9 10 11 13 13 12 9 9 7 4 5 4
9 6 2 6 18 12 8 5 7 10 7 12 14 18 19 16 16 11 7 1 7 14 17 20 21 22 21 21 19 17 15 14 12 10 9 9 10 10 11 12 11 11 10 10 8 6 4 5 5
Wind_Direction
191 185 158 216 212 212 227 243 252 255 232 155 134 192 194 203 167 205 296 179 175 180 180 183 187 186 186 187 184 181 183 183 180 179 174 171 168 166 167 169 171 171 166 166 165 162 160 157 151
165 151 174 146 234 216 232 233 244 258 261 292 252 213 205 215 232 254 155 174 174 183 182 184 190 189 188 190 187 185 184 186 184 184 180 175 171 168 168 168 166 164 165 165 167 169 163 156 148
154 152 211 205 215 223 244 214 241 245 291 277 285 212 210 207 206 212 188 172 178 181 185 189 192 193 192 193 191 189 189 189 187 187 187 183 176 173 172 169 168 167 170 174 175 180 180 179 181
180 175 147 229 232 229 230 216 165 283 333 229 269 256 236 237 207 181 171 175 179 184 188 192 195 196 197 197 196 194 195 194 192 191 191 188 183 178 174 171 168 170 175 181 185 188 196 213 227
74 213 224 235 243 250 250 263 273 282 287 254 255 241 229 236 214 168 171 178 185 187 191 196 200 201 201 202 201 201 200 201 197 197 195 192 188 183 179 176 172 174 180 187 195 204 214 222 235
183 264 218 232 237 243 264 267 270 266 287 289 230 239 185 221 178 172 179 185 191 196 196 200 204 206 206 207 207 207 206 207 204 203 201 198 195 189 183 180 179 180 183 187 201 217 227 237 248
228 209 236 241 252 258 260 256 260 275 275 289 278 230 324 233 185 189 187 192 197 202 203 203 204 211 214 215 216 214 216 215 213 210 208 204 200 194 191 187 185 186 190 190 202 219 233 252 259
216 231 235 236 236 256 260 249 323 214 262 319 284 258 355 335 170 175 190 194 204 207 212 210 208 212 215 219 222 222 223 222 220 219 218 214 207 202 198 194 192 194 217 225 219 224 233 243 256
156 231 243 233 217 226 226 238 280 299 273 307 333 60 344 44 148 155 170 194 206 217 219 220 220 220 218 219 222 226 228 227 224 224 225 218 205 203 200 198 199 204 192 239 246 241 243 244 258
202 227 234 228 229 230 236 224 299 298 296 284 308 236 2 63 160 205 197 203 213 224 224 226 225 228 227 223 225 223 222 222 220 220 217 211 208 202 198 203 210 210 202 204 236 242 247 248 252
205 235 235 230 228 231 246 258 239 272 276 270 271 300 331 326 318 293 249 239 229 236 237 236 236 235 232 229 226 225 224 222 221 220 213 209 207 205 204 208 220 213 218 184 227 237 241 243 244
238 228 241 247 240 230 237 252 252 249 256 272 278 288 283 279 277 274 270 261 248 243 250 252 251 249 246 239 234 231 223 221 224 221 213 205 206 207 208 213 215 210 220 195 211 225 233 238 241
235 239 241 241 253 251 265 246 248 254 263 264 273 275 269 261 259 262 267 277 271 252 260 267 266 261 258 250 243 236 232 227 229 222 216 210 210 210 211 216 216 218 215 212 213 229 239 241 238
236 242 245 245 236 234 251 265 240 250 253 251 255 263 267 266 246 254 256 260 256 253 253 268 274 273 266 257 250 244 237 232 227 222 218 213 214 214 215 217 218 217 215 218 226 235 247 249 240
252 255 238 236 238 247 252 279 245 245 257 260 255 257 262 254 250 244 253 249 257 255 264 273 281 279 267 259 256 246 236 233 225 220 214 214 215 218 219 219 219 222 221 225 235 239 247 246 239
242 236 244 237 210 224 186 259 265 222 242 251 264 262 256 249 257 262 260 255 259 259 263 280 281 284 278 263 253 243 231 225 222 217 212 214 215 221 219 220 221 220 221 224 230 233 242 251 240
225 235 227 239 212 199 193 254 257 256 240 247 248 263 275 282 273 265 256 261 281 292 295 292 297 297 286 265 245 231 225 217 219 213 209 210 215 219 217 217 216 218 216 223 224 234 243 237 243
226 228 236 237 219 214 217 249 251 266 268 268 262 264 269 271 274 286 278 278 286 290 286 295 302 305 280 247 225 212 211 211 209 206 207 209 211 213 213 211 209 212 214 213 215 229 229 248 261
259 264 245 259 231 209 221 244 250 247 259 262 269 275 276 278 286 287 279 281 277 283 283 288 304 309 262 209 191 200 202 198 202 204 198 201 204 203 205 204 198 200 201 203 211 230 237 239 248
246 255 266 252 245 235 244 250 253 249 255 258 265 270 275 280 279 278 275 274 273 275 283 284 298 291 247 211 200 183 171 197 194 196 187 191 193 195 197 192 196 193 193 195 204 226 219 225 212
237 240 240 250 291 249 274 267 254 246 248 253 258 263 265 265 272 272 272 272 277 274 279 282 293 272 233 202 187 167 143 135 173 182 176 189 185 188 191 192 193 193 194 208 216 213 212 206 197
242 236 240 239 253 243 202 275 259 252 252 252 259 263 260 268 258 257 263 264 257 264 273 282 281 248 217 198 190 181 173 164 180 172 173 175 178 185 189 193 201 199 197 204 207 214 212 206 195
235 206 203 216 228 243 240 263 261 254 257 257 256 256 267 263 261 264 261 261 263 264 267 271 241 205 195 190 187 176 159 150 149 155 160 158 173 182 185 189 195 200 200 207 204 199 204 208 210
227 215 237 251 246 236 232 231 268 248 258 263 265 260 273 278 278 272 264 262 259 260 246 214 187 176 175 175 177 169 151 144 144 153 148 159 169 177 185 189 199 200 200 201 202 200 208 208 215
212 189 191 216 217 237 215 220 245 263 264 271 223 323 306 288 288 279 270 259 249 228 202 182 172 164 166 163 163 155 150 150 156 161 161 162 168 178 187 187 185 189 204 201 195 203 212 213 213
213 199 206 219 216 231 209 230 241 230 267 272 265 314 330 328 329 305 296 270 250 212 190 173 163 155 157 153 148 146 147 153 160 161 164 170 174 178 180 184 195 202 198 191 199 207 210 204 207
198 213 223 278 157 227 197 243 269 258 275 257 293 329 351 343 341 332 318 286 228 182 170 162 155 150 149 146 144 143 149 150 154 160 161 160 160 165 178 190 197 195 189 188 197 200 193 196 207
245 216 194 210 206 208 207 239 232 197 209 18 35 4 343 347 346 342 336 283 180 162 156 155 151 146 144 141 141 144 144 144 145 146 150 154 161 169 181 183 185 180 181 188 187 190 186 196 221
238 233 245 244 238 244 241 218 218 224 97 47 14 352 352 346 348 351 347 4 160 153 151 147 145 141 138 139 139 136 136 137 141 145 151 157 161 166 172 175 175 173 180 178 182 186 174 197 211
251 285 257 250 215 239 279 278 114 119 69 8 351 347 344 344 350 350 341 50 161 154 149 149 145 142 140 137 136 135 139 141 144 148 151 153 154 164 166 166 164 169 172 176 183 181 178 196 208